国际通讯卫星 704星 (INTELSAT 704 (IS-704))

导读 | 豆包AI

INTELSAT 704是国际通信卫星组织(ITSO)运营的一颗通信卫星,属于Intelsat 7系列卫星,于1995年1月10日发射升空。该卫星由美国劳拉航天系统公司建造,基于SSL-1300平台研发,发射质量约3695千克,配备R-4D发动机,主要为跨大西洋区域提供语音、数据和广播电视传输服务,是九十年代国际卫星通信网络的重要组成部分,服役期间保障了洲际通信链路的稳定运行。

基本信息
目录编号:
23461
目录名称:
INTELSAT 704
国际标识:
1995-001A
轨道中心:
EARTH
卫星名称:
国际通讯卫星 704星
卫星全名:
国际通讯卫星 704星 (INTELSAT 704 (IS-704))
卫星状态:
在轨 (已飞行11407 天)
发射日期:
1995-01-10 UTC
国别 :
(ITSO)
星等 :
--
轨道信息
数据来源 国际轨道数据 AOE轨道数据
星历时间 2026-04-03T10:34:00+0800
1天前
查看轨道信息
2026-04-02T12:00:00+0800
1天前
查看轨道信息
半长轴 42472.69km 42473.118km
偏心率 0.0008149 0.0008207
轨道倾角 11.730° 11.728°
近地点辐角 174.990° 174.581°
升交点赤经 36.272° 36.278°
平近点角 20.727° 45.385°
近地点 36059.942km 36060.123km
远地点 36129.164km 36129.839km
周期 1451.859分钟 1451.881分钟
每日圈数 0.991832 0.991817
详细信息
卫星平台:
SSL-1300
平衡模式:
三轴稳定
覆盖范围:
全球
运营商:
国际卫星通信公司
运营商所在国:
美国
制造商(研发单位):
劳拉空间系统公司
制造商所在国:
美国
使用方式:
暂无
卫星简介
从1965年4月至1984年3月,国际通信卫星组织发射了5代、6种不同性能的卫星共计35颗,除6颗卫星因运载火箭和远地点发动机故障而发射失败外,其余29颗卫星均被送到了预定的静止轨道位置。1984年8月前后,国际通信卫星组织利用部署在大西洋、太平洋、印度洋上空的15颗国际通信卫星,为遍布世界各地170多个国家或地区提供电话、电传、电报、电视和数据传输等电信业务;该卫星已退役。
2D轨道图
3D轨道图
轨道高度分析图
轨道倾角分析图
轨道综合分析图
查看轨道综合分析图